SCP
1 1 1 1 1 1 2 6 9 6 3 2 2 2 2 1 1 1 1 1 1 1 0 0 0 0 0 0 0 0 0 0 0 0 0 0 0 0 0 0 0 0 1
1 1 1 1 1 1 1 2 4 3 2 2 2 1 1 1 1 1 1 1 1 1 0 0 0 0 0 0 0 0 0 0 0 0 0 0 0 0 0 0 0 0 0
0 0 0 0 0 0 0 0 0 0 1 1 1 1 1 1 0 0 0 0 0 1 0 0 0 0 0 0 0 0 0 0 0 0 0 0 0 0 0 0 0 0 0
0 0 0 0 0 0 0 0 0 0 0 1 1 1 1 1 1 0 0 0 0 0 0 0 0 0 0 0 0 0 0 0 0 0 0 0 0 0 0 0 0 0 0
0 0 0 0 0 0 0 0 0 0 0 0 1 1 1 1 1 1 0 1 1 1 1 0 0 0 0 0 0 0 0 0 0 0 0 0 0 0 0 0 0 0 0
0 0 0 0 0 0 0 0 0 0 0 0 0 0 0 0 0 0 0 1 1 1 1 1 0 0 0 0 0 0 0 0 0 0 0 0 0 0 0 0 0 0 0
0 0 0 0 0 0 0 0 0 0 0 0 0 0 0 0 0 0 0 0 1 1 1 1 1 1 0 0 0 0 0 0 0 0 0 0 0 0 0 0 0 0 0
0 0 0 0 0 0 0 0 0 0 0 0 0 0 0 0 0 0 0 0 0 0 0 1 1 1 1 0 0 0 0 0 0 0 0 0 0 0 0 0 0 0 0
0 0 0 0 0 0 0 0 0 0 0 0 0 0 0 0 0 0 0 0 0 0 0 0 1 1 1 1 0 0 0 0 0 0 0 0 0 0 0 0 0 0 0
0 0 0 0 0 0 0 0 0 0 0 0 0 0 0 0 0 0 0 0 0 0 0 0 0 1 1 1 1 1 0 0 0 0 0 0 0 0 0 0 0 0 0
0 0 0 0 0 0 0 0 0 0 0 0 0 0 0 0 0 0 0 0 0 0 0 0 0 0 0 1 1 1 1 0 0 0 0 0 0 0 0 0 0 0 0
0 0 0 0 0 0 0 0 0 0 0 0 0 0 0 0 0 0 0 0 0 0 0 0 0 0 0 0 0 1 1 1 1 1 1 0 0 0 0 0 0 0 0
0 0 0 0 0 0 0 0 0 0 0 0 0 0 0 0 0 0 0 0 0 0 0 0 0 0 0 0 0 0 0 1 1 1 1 1 1 0 0 0 0 0 0
0 0 0 0 0 0 0 0 0 0 0 0 0 0 0 0 0 0 0 0 0 0 0 0 0 0 0 0 0 0 0 0 0 1 1 1 1 0 0 0 0 0 0
0 0 0 0 0 0 0 0 0 0 0 0 0 0 0 0 0 0 0 0 0 0 0 0 0 0 0 0 0 0 0 0 0 0 0 0 0 0 0 0 0 0 0
0 0 0 0 0 0 0 0 0 0 0 0 0 0 0 0 0 0 0 0 0 0 0 0 0 0 0 0 0 0 0 0 0 0 0 0 0 0 0 0 0 0 0
0 0 0 0 0 0 0 0 0 0 0 0 0 0 0 0 0 0 0 0 0 0 0 0 0 0 0 0 0 0 0 0 0 0 0 0 0 0 0 0 0 0 0
0 0 0 0 0 0 0 0 0 0 0 0 0 0 0 0 0 0 0 0 0 0 0 0 0 0 0 0 0 0 0 0 0 0 0 0 0 0 0 0 0 0 0
0 0 0 0 0 0 0 0 0 0 0 0 0 0 0 0 0 0 0 0 0 0 0 0 0 0 0 0 0 0 0 0 0 0 0 0 0 0 0 0 0 0 0
0 0 0 0 0 0 0 0 0 0 0 0 0 0 0 0 0 0 0 0 0 0 0 0 0 0 0 0 0 0 0 0 0 0 0 0 0 0 0 0 0 0 0
0 0 0 0 0 0 0 0 0 0 0 0 0 0 0 0 0 0 0 0 0 0 0 0 0 0 0 0 0 0 0 0 0 0 0 0 0 0 0 0 0 0 0
0 0 0 0 0 0 0 0 0 0 0 0 0 0 0 0 0 0 0 0 0 0 0 0 0 0 0 0 0 0 0 0 0 0 0 0 0 0 0 0 0 0 0
0 0 0 0 0 0 0 0 0 0 0 0 0 0 0 0 0 0 0 0 0 0 0 0 0 0 0 0 0 0 0 0 0 0 0 0 0 0 0 0 0 0 0
0 0 0 0 0 0 0 0 0 0 0 0 0 0 0 0 0 0 0 0 0 0 0 0 0 0 0 0 0 0 0 0 0 0 0 0 0 0 0 0 0 0 0
0 0 0 0 0 0 0 0 0 0 0 0 0 0 0 0 0 0 0 0 0 0 0 0 0 0 0 0 0 0 0 0 0 0 0 0 0 0 0 0 0 0 0
0 0 0 0 0 0 0 0 0 0 0 0 0 0 0 0 0 0 0 0 0 0 0 0 0 0 0 0 0 0 0 0 0 0 0 0 0 0 0 0 0 0 0
Wind_Speed
6 6 6 6 7 10 10 7 4 2 3 3 4 3 2 2 3 4 6 6 6 6 5 4 3 3 2 1 1 1 1 1 1 1 2 3 4 5 5 5 5 6 8
9 8 8 9 10 10 8 5 4 3 3 3 4 3 2 2 2 3 4 6 7 6 5 6 4 3 2 1 1 1 1 1 1 2 1 3 5 4 2 2 3 4 4
11 11 13 12 12 12 10 8 7 6 6 4 3 2 2 2 2 1 2 4 6 7 6 7 5 4 3 2 2 2 3 2 1 2 3 1 2 4 4 3 2 2 3
8 9 11 11 11 10 9 8 8 8 9 8 7 6 4 3 3 2 2 3 4 6 7 7 7 5 4 4 3 3 3 3 2 1 2 3 3 2 4 4 3 3 4
6 8 8 8 7 7 6 5 6 7 8 8 9 8 6 4 4 4 4 3 3 4 5 7 7 6 5 5 4 3 3 3 3 2 2 2 2 4 3 5 5 4 3
3 4 5 5 4 4 4 4 5 6 6 6 6 7 7 6 6 6 6 4 3 3 4 6 6 7 5 5 5 4 4 3 3 3 3 3 3 3 3 4 4 5 4
2 3 3 2 1 1 2 3 4 4 5 5 5 5 5 5 5 5 5 5 4 3 5 4 5 5 6 6 5 5 4 4 4 4 4 4 4 4 4 4 4 4 4
1 1 2 2 2 2 2 1 1 1 2 3 3 3 4 3 3 4 4 4 4 4 5 5 3 4 6 6 5 4 5 4 5 5 5 4 4 4 4 4 3 3 3
2 3 4 5 5 5 5 4 3 2 2 2 2 3 3 3 4 5 4 4 4 5 7 7 5 4 4 5 6 5 6 5 5 5 5 4 4 4 4 4 4 3 3
4 5 6 7 7 7 6 6 5 5 6 5 5 4 5 5 4 4 5 5 5 5 6 7 7 6 5 5 6 5 6 6 6 5 5 5 4 4 4 4 4 4 4
6 7 7 7 6 6 5 5 6 6 7 7 7 6 7 6 5 5 6 6 5 5 5 5 6 7 7 6 5 6 7 7 7 6 6 7 5 4 4 3 3 4 4
8 7 7 6 4 4 5 6 7 8 9 9 8 8 8 7 7 7 7 6 6 6 6 6 6 6 7 6 6 7 7 7 8 7 7 7 5 6 4 4 4 4 4
8 6 5 5 5 5 6 8 8 10 10 9 9 9 9 8 9 9 8 7 7 7 6 6 6 7 6 6 7 7 7 7 7 8 8 8 7 7 5 5 4 3 4
5 6 6 6 7 7 8 8 9 10 10 10 10 10 11 11 10 10 9 9 8 8 8 7 7 7 7 7 7 6 6 6 6 7 8 8 8 8 7 5 5 4 4
8 9 8 8 8 9 9 9 9 10 10 10 10 11 12 11 10 9 10 9 9 10 9 8 8 8 7 8 7 5 6 5 6 6 7 8 9 10 8 5 5 4 4
11 11 11 11 11 11 11 10 10 11 10 10 10 11 10 10 10 10 10 9 9 9 9 9 10 9 9 10 11 8 6 6 6 7 7 7 9 10 10 9 7 7 6
14 14 12 12 12 12 12 12 12 11 10 11 11 10 10 10 10 10 8 8 8 8 8 9 9 10 11 15 14 13 7 6 6 7 6 6 7 9 6 5 4 3 5
14 13 12 12 12 11 11 12 12 11 11 11 11 10 10 10 9 8 8 7 6 6 7 8 9 9 11 14 14 14 8 6 7 7 7 8 8 9 8 6 3 2 2
14 12 12 13 12 12 13 13 13 13 12 12 11 10 9 9 8 8 8 7 6 6 7 6 8 8 10 13 14 12 5 5 7 6 6 8 10 13 12 8 6 5 4
9 9 10 10 11 12 12 13 14 14 14 14 12 11 9 8 8 8 7 6 6 7 7 7 7 8 8 11 13 11 4 5 5 5 5 9 11 14 14 9 9 8 6
10 10 10 11 12 13 13 13 14 14 15 14 13 11 10 9 8 7 6 6 6 6 7 8 7 7 8 10 13 12 5 5 4 3 3 4 12 15 15 11 8 10 10
10 11 11 13 13 13 14 15 16 15 15 15 14 13 11 11 10 7 6 6 6 6 7 7 7 6 6 8 10 13 12 8 5 3 2 3 10 14 15 10 11 15 12
12 11 13 16 15 13 13 16 16 15 15 14 14 12 12 10 9 8 8 7 6 6 6 5 5 5 4 6 11 13 13 11 5 3 3 3 8 11 10 13 17 14 9
12 13 16 17 17 15 14 14 15 14 13 13 12 10 9 9 8 7 6 6 6 6 6 5 5 4 3 4 4 4 5 7 5 3 2 4 8 6 7 11 11 7 8
12 13 15 16 17 16 15 14 14 13 13 12 10 9 8 7 6 6 5 6 5 5 6 5 4 4 4 6 9 7 6 6 5 5 2 2 4 4 5 6 5 6 7
14 15 16 16 17 16 16 14 13 12 11 10 8 6 5 5 5 4 4 5 6 8 10 8 6 4 5 5 8 10 10 10 11 6 4 4 4 5 6 7 5 5 7
Wind_Direction
58 59 55 52 62 62 52 48 17 6 304 270 264 268 249 217 171 179 176 172 166 159 150 140 131 127 131 155 173 176 178 221 173 54 323 297 268 251 246 245 248 250 248
36 45 54 53 52 60 55 29 354 319 270 247 251 243 233 226 191 185 184 180 171 166 156 150 152 151 143 140 154 162 160 223 129 126 27 337 333 331 294 278 257 263 263
29 36 48 48 49 45 37 36 25 13 6 345 306 320 14 15 19 264 220 207 183 172 163 164 162 166 161 179 198 188 170 182 186 150 150 156 281 310 304 293 284 294 293
28 38 45 45 46 44 38 30 27 27 23 16 22 31 28 6 330 299 275 255 209 183 176 173 171 173 175 187 205 192 178 165 188 210 180 184 188 236 304 308 297 296 294
31 43 44 42 41 39 41 36 31 31 28 29 31 31 26 3 341 343 345 317 277 236 208 189 178 179 185 196 201 195 196 187 187 193 203 215 208 204 227 286 305 310 282
55 54 50 45 36 27 26 26 30 27 23 28 31 32 21 6 2 357 349 336 318 298 263 220 196 186 187 197 200 200 207 214 215 213 206 202 209 208 208 251 285 296 293
99 75 63 57 48 31 27 31 36 21 13 21 24 24 13 357 350 339 337 338 333 327 320 271 219 198 194 196 195 200 216 220 224 228 225 219 218 212 207 232 262 274 291
159 152 180 206 224 218 200 175 90 20 3 10 3 2 359 346 327 324 320 321 316 305 319 318 268 227 205 202 200 206 213 215 223 231 229 230 235 222 210 210 226 269 286
203 213 223 224 224 221 215 205 196 216 244 254 268 284 303 310 309 312 313 311 314 319 331 329 322 283 242 222 208 212 217 218 223 229 233 234 241 233 224 213 202 213 255
230 238 240 235 227 216 208 200 200 212 227 233 238 241 248 258 270 288 296 299 305 315 325 328 327 316 287 250 226 220 221 219 226 223 227 235 238 237 231 219 208 202 213
266 264 264 260 248 228 213 213 219 226 237 239 239 243 247 247 251 261 270 275 282 292 301 307 312 313 305 286 257 238 226 221 226 226 222 229 228 232 234 223 210 207 206
297 298 303 308 300 268 246 242 241 239 243 243 241 243 247 246 246 250 257 261 269 275 278 285 292 295 301 300 288 271 253 231 224 222 218 226 226 228 230 222 219 214 208
313 317 318 311 295 274 259 253 249 246 248 246 242 246 249 247 246 247 251 253 257 264 269 272 275 278 282 289 288 282 273 251 234 222 214 217 216 227 227 221 222 222 218
322 318 305 291 278 268 261 257 253 248 246 243 239 240 242 242 242 244 245 248 249 254 259 258 259 264 270 274 277 278 280 273 256 237 222 214 210 216 217 217 221 221 223
313 305 294 282 274 269 264 259 256 252 247 242 238 237 238 236 235 236 240 243 245 248 248 250 254 256 259 262 260 257 274 277 278 261 236 222 210 208 205 204 211 212 216
306 303 296 289 283 277 273 269 265 260 252 244 239 236 229 225 223 227 230 234 238 243 245 246 249 252 258 260 263 262 264 266 270 268 250 225 204 202 202 206 207 206 206
306 303 297 289 286 284 281 278 274 269 258 250 244 234 226 221 218 218 217 222 231 238 243 246 245 247 250 253 257 260 256 255 260 260 241 218 199 185 181 185 180 191 196
303 301 299 297 296 294 296 294 291 285 276 266 257 247 235 227 219 212 213 220 224 230 237 243 244 244 250 249 248 250 250 252 257 255 237 216 190 186 174 165 147 119 104
304 308 311 314 317 319 320 318 312 306 297 289 277 263 247 235 223 216 216 218 223 233 235 236 240 240 249 251 247 239 232 244 257 257 245 219 194 187 172 157 146 125 99
314 319 322 321 321 320 321 318 313 309 304 301 295 285 268 248 234 222 220 220 221 232 237 238 236 236 242 249 244 228 210 233 254 261 250 220 200 181 171 162 156 144 133
318 319 319 319 318 317 315 310 305 301 298 295 292 289 281 267 251 235 226 229 233 235 236 239 238 235 236 243 238 222 201 211 231 247 243 220 199 180 172 165 164 153 138
319 321 321 320 317 315 313 309 305 301 297 293 287 282 278 272 270 250 241 236 233 233 235 236 241 240 236 230 229 220 212 203 201 222 231 214 189 179 171 163 153 143 132
321 322 322 321 319 317 313 309 307 306 304 299 292 285 280 272 264 253 249 244 230 227 228 223 230 239 235 231 227 219 213 209 197 201 203 164 173 173 170 159 151 145 136
324 326 326 323 322 321 316 310 309 310 307 303 298 289 282 277 268 257 247 240 227 220 218 215 219 229 234 227 211 201 200 199 194 188 166 141 154 169 161 155 154 148 144
325 325 324 321 320 320 317 315 314 315 313 309 303 296 287 280 273 264 251 239 225 209 202 205 202 205 224 225 198 182 185 185 182 157 140 133 147 157 152 155 151 137 133
326 325 323 321 320 320 318 317 317 316 315 312 309 303 297 291 280 277 279 254 239 231 223 215 199 204 220 220 193 190 185 177 166 155 156 157 155 158 158 158 147 137 140